PEGASUS R/B

Satellite information

Favourite Embed

Satellite Type and Status

ROCKET BODYIN ORBIT

Key statistics

Satellite PEGASUS R/B at a glance.

Uptime

9321

Days in orbit

Revolutions

≈ 14.2

Per day

Orbit

LEO

Low Earth Orbit

Inclination

68.9

Latest

Satellite identification and parameters

Extended collection of information and parameters for PEGASUS R/B.

Object identification

Identified? True

Debris? False

Object name: PEGASUS R/B

International designator: 2000-030B

Object number (NORAD): 26375

Object ID (CCSDS): 26375

Country: UNITED STATES OF AMERICA (US)

Current information (Y/N): Y

RCS size: LARGE

Orbital parameters

Period: 101.642 minutes

Inclination: 68.9443 deg

SMA: 7214.528 km

Apoapsis: 1269.304 km

Periapsis: 403.482 km

RAAN: 208.1629 deg

Eccentricy: 0.06000544

Argument of periapsis: 301.1131 deg

Mean anomaly: 53.2422 deg

Mean motion: 14.16742456 rev/day

Mean motion (dot): 0.00006859 rev/day2

B* drag term: 0.00053892997 1/REarth

Two-line elements (TLE)

Creation date: Dec. 12, 2025, 10:14 a.m.

Reference frame: TEME

Reference center: EARTH

Epoch: Dec. 12, 2025, 5:47 a.m. UTC

TLE line 0: 0 PEGASUS R/B

TLE line 1: 1 26375U 00030B 25346.24150908 .00006859 00000-0 53893-3 0 9994

TLE line 2: 2 26375 68.9443 208.1629 0600054 301.1131 53.2422 14.16742456638399

Live tracking on map

Real-time ground track for satellite PEGASUS R/B.

In-orbit conjunctions

A list of the most updated potential collisions computed for object PEGASUS R/B.

Target Orbit TCA Probability of collision Miss distance Type
CZ-6A DEB LEO 2025-05-09 08:26:16 0.0002925631 95.0 (m) DEBRIS
FENGYUN 1C DEB SSO 2025-03-09 04:31:16 0.0004158797 225.0 (m) DEBRIS

Associated space launch

PEGASUS R/B was lifted into orbit during the mission ‘Pegasus XL | Tri-Services Experiments Platform-5 (TSX-5)’, on board a Pegasus XL space rocket.

The launch took place on June 7, 2000, 1:19 p.m. from Vandenberg Space Force Base.

For more information about the launch, click the button.

Launch to space Pegasus XL | Tri-Services Experiments Platform-5 (TSX-5)
Pegasus XL | Tri-Services Experiments Platform-5 (TSX-5)

Agency: N/A

Status: Launch Successful

Launch date: June 7, 2000, 1:19 p.m. UTC

Rocket: Pegasus XL

Launch pad: Vandenberg Space Force Base

Location: Air launch to orbit

...

Latest news about this satellite

There are no fresh news available about this satellite. Check back as we update our databases every day.


Newsletter sign-up

Weekly statistics, charts and insights to help you stay on top of the space industry.